NOAA 17 DEB, 48755

Orbit data source: Space-Track

NOAA 17 DEB, 48755 is space debris in SSO originally from a launch on Mon, 24 Jun 2002 UTC launched from the Air Force Western Test Range (AFWTR). Debris objects in space refer to the collection of defunct objects orbiting the Earth. Examples of debris include non-operational satellites, rocket bodies, and fragments generated from explosions, collisions, or faulty payload assembly.

Loading next visibility...
Identifier
48755, 2002-032CQ
Orbit
SSO
Country
Flag of USUS
Related business
Manufacturer
Unknown
Mission
Spacecraft
Bus & Motor
Unknown
Mass
Unknown
Launch date (UTC)
2002-06-24 (24 years ago)
Launch vehicle
Unknown
Launch site
Air Force Western Test Range (AFWTR)
Object type
Payload
Rocket body
Debris
Shape & HBR
Unknown shape, 0.1 m
Radar Cross Section
Medium (>0.1 m² and <1 m²)

Expand to show TLE details & history
Last TLE update: 2 days ago

TLE from 2 days ago
0 NOAA 17 DEB
1 48755U 02032CQ  26171.40280939  .00033990  00000-0  25834-2 0  9996
2 48755  98.6954 218.3034 0010265 250.2208 109.7907 15.02026439277401
Epoch: 2026-06-20T09:40Z
TLE epoch observation values (Epoch: 2026-06-20T09:40:02.731Z)
Latitude
Longitude
164.67408°
Altitude
566.093 km
Speed
7.577 km/s
True Right ascension
14h 33m 12s
True Declination
0° 00' 00"
Sunlit
Object was in full shadow at epoch
Visualization orbit readout
Latitude
Unknown
Longitude
Unknown
Altitude
Unknown
Speed
Unknown
Apparent Right ascension
Unknown
Apparent Declination
Unknown
Sunlit
N/A
Visualization observer readout
Local Sidereal Time
21:41:36
Azimuth
Unknown
Elevation
Unknown
Doppler factor
Unknown
Orbital elements
Apogee altitude
564.817 km
Perigee altitude
550.578 km
Semi-major axis
6,935.835 km
Eccentricity
0.00103
Inclination
98.6954°
RAAN
218.3034°
Arg. of periapsis
250.2208°
True anomaly
109.90133°
Mean anomaly
109.7907°
Eccentric anomaly
109.84602°
Mean motion
3.75747 °/min
Orbital period
95.81 mins
BSTAR
0.0025834
Loading maneuver chart data...
Computing Atmospheric mass density...

Documentation

Showing up to 5 results
|